User: anonymous   Login
Location: Unspecified
(0.0000°N, 0.0000°E)
Time: 04:31:39
(UTC+00:00)
Language:

HO-68 - Orbit

View from above orbital plane
View from above orbital plane
View from above satellite
View from above satellite

Ground track
Ground track

The orbit data is extracted from the following two-line orbital elements,

1 36122U 09072B   18116.70912346 -.00000022  00000-0  53263-4 0  9999
2 36122 100.0786 133.7462 0006965 227.5319 132.5207 13.16344253401871
Epoch (UTC): 26 April 2018 17:01:08
Eccentricity: 0.0006965
inclination: 100.0786°
perigee height: 1193 km
apogee height: 1204 km
right ascension of ascending node: 133.7462°
argument of perigee: 227.5319°
revolutions per day: 13.16344253
mean anomaly at epoch: 132.5207°
orbit number at epoch: 40187

The dashed part of the orbit path shows where the satellite is in the earth's shadow,  

DLR